Year,Month,Day,Hour,Minute,Value (Times are PST for temperature in C)
2017,11,23,00,00,15.50
2017,11,23,00,01,15.50
2017,11,23,00,02,15.50
2017,11,23,00,03,15.40
2017,11,23,00,04,15.40
2017,11,23,00,05,15.40
2017,11,23,00,06,15.30
2017,11,23,00,07,15.30
2017,11,23,00,08,15.30
2017,11,23,00,09,15.30
2017,11,23,00,10,15.30
2017,11,23,00,11,15.30
2017,11,23,00,12,15.30
2017,11,23,00,13,15.30
2017,11,23,00,14,15.30
2017,11,23,00,15,15.30
2017,11,23,00,16,15.30
2017,11,23,00,17,15.30
2017,11,23,00,18,15.30
2017,11,23,00,19,15.30
2017,11,23,00,20,15.40
2017,11,23,00,21,15.40
2017,11,23,00,22,15.40
2017,11,23,00,23,15.40
2017,11,23,00,24,15.40
2017,11,23,00,25,15.30
2017,11,23,00,26,15.30
2017,11,23,00,27,15.30
2017,11,23,00,28,15.30
2017,11,23,00,29,15.30
2017,11,23,00,30,15.30
2017,11,23,00,31,15.30
2017,11,23,00,32,15.30
2017,11,23,00,33,15.30
2017,11,23,00,34,15.30
2017,11,23,00,35,15.30
2017,11,23,00,36,15.30
2017,11,23,00,37,15.30
2017,11,23,00,38,15.30
2017,11,23,00,39,15.20
2017,11,23,00,40,15.20
2017,11,23,00,41,15.10
2017,11,23,00,42,15.00
2017,11,23,00,43,14.90
2017,11,23,00,44,14.90
2017,11,23,00,45,14.80
2017,11,23,00,46,14.80
2017,11,23,00,47,14.80
2017,11,23,00,48,14.70
2017,11,23,00,49,14.70
2017,11,23,00,50,14.70
2017,11,23,00,51,14.60
2017,11,23,00,52,14.60
2017,11,23,00,53,14.60
2017,11,23,00,54,14.60
2017,11,23,00,55,14.60
2017,11,23,00,56,14.60
2017,11,23,00,57,14.60
2017,11,23,00,58,14.60
2017,11,23,00,59,14.60
2017,11,23,01,00,14.60
2017,11,23,01,01,14.60
2017,11,23,01,02,14.60
2017,11,23,01,03,14.50
2017,11,23,01,04,14.50
2017,11,23,01,05,14.50
2017,11,23,01,06,14.50
2017,11,23,01,07,14.50
2017,11,23,01,08,14.50
2017,11,23,01,09,14.50
2017,11,23,01,10,14.50
2017,11,23,01,11,14.50
2017,11,23,01,12,14.50
2017,11,23,01,13,14.50
2017,11,23,01,14,14.40
2017,11,23,01,15,14.40
2017,11,23,01,16,14.40
2017,11,23,01,17,14.50
2017,11,23,01,18,14.50
2017,11,23,01,19,14.60
2017,11,23,01,20,14.60
2017,11,23,01,21,14.60
2017,11,23,01,22,14.60
2017,11,23,01,23,14.50
2017,11,23,01,24,14.50
2017,11,23,01,25,14.50
2017,11,23,01,26,14.60
2017,11,23,01,27,14.60
2017,11,23,01,28,14.50
2017,11,23,01,29,14.50
2017,11,23,01,30,14.50
2017,11,23,01,31,14.40
2017,11,23,01,32,14.40
2017,11,23,01,33,14.40
2017,11,23,01,34,14.40
2017,11,23,01,35,14.40
2017,11,23,01,36,14.40
2017,11,23,01,37,14.40
2017,11,23,01,38,14.40
2017,11,23,01,39,14.40
2017,11,23,01,40,14.40
2017,11,23,01,41,14.40
2017,11,23,01,42,14.40
2017,11,23,01,43,14.40
2017,11,23,01,44,14.40
2017,11,23,01,45,14.40
2017,11,23,01,46,14.40
2017,11,23,01,47,14.40
2017,11,23,01,48,14.50
2017,11,23,01,49,14.50
2017,11,23,01,50,14.60
2017,11,23,01,51,14.60
2017,11,23,01,52,14.60
2017,11,23,01,53,14.50
2017,11,23,01,54,14.50
2017,11,23,01,55,14.50
2017,11,23,01,56,14.40
2017,11,23,01,57,14.40
2017,11,23,01,58,14.40
2017,11,23,01,59,14.30
2017,11,23,02,00,14.30
2017,11,23,02,01,14.30
2017,11,23,02,02,14.20
2017,11,23,02,03,14.20
2017,11,23,02,04,14.20
2017,11,23,02,05,14.20
2017,11,23,02,06,14.20
2017,11,23,02,07,14.20
2017,11,23,02,08,14.20
2017,11,23,02,09,14.20
2017,11,23,02,10,14.20
2017,11,23,02,11,14.30
2017,11,23,02,12,14.30
2017,11,23,02,13,14.30
2017,11,23,02,14,14.30
2017,11,23,02,15,14.30
2017,11,23,02,16,14.30
2017,11,23,02,17,14.30
2017,11,23,02,18,14.30
2017,11,23,02,19,14.30
2017,11,23,02,20,14.40
2017,11,23,02,21,14.30
2017,11,23,02,22,14.30
2017,11,23,02,23,14.30
2017,11,23,02,24,14.30
2017,11,23,02,25,14.30
2017,11,23,02,26,14.30
2017,11,23,02,27,14.20
2017,11,23,02,28,14.20
2017,11,23,02,29,14.20
2017,11,23,02,30,14.20
2017,11,23,02,31,14.20
2017,11,23,02,32,14.10
2017,11,23,02,33,14.10
2017,11,23,02,34,14.10
2017,11,23,02,35,14.10
2017,11,23,02,36,14.10
2017,11,23,02,37,14.10
2017,11,23,02,38,14.00
2017,11,23,02,39,14.00
2017,11,23,02,40,14.00
2017,11,23,02,41,14.00
2017,11,23,02,42,14.00
2017,11,23,02,43,14.00
2017,11,23,02,44,14.00
2017,11,23,02,45,13.90
2017,11,23,02,46,13.90
2017,11,23,02,47,13.90
2017,11,23,02,48,13.90
2017,11,23,02,49,13.90
2017,11,23,02,50,13.90
2017,11,23,02,51,13.90
2017,11,23,02,52,13.90
2017,11,23,02,53,14.00
2017,11,23,02,54,14.00
2017,11,23,02,55,14.10
2017,11,23,02,56,14.10
2017,11,23,02,57,14.10
2017,11,23,02,58,14.10
2017,11,23,02,59,14.10
2017,11,23,03,00,14.10
2017,11,23,03,01,14.20
2017,11,23,03,02,14.10
2017,11,23,03,03,14.10
2017,11,23,03,04,14.10
2017,11,23,03,05,14.10
2017,11,23,03,06,14.10
2017,11,23,03,07,14.10
2017,11,23,03,08,14.10
2017,11,23,03,09,14.10
2017,11,23,03,10,14.10
2017,11,23,03,11,14.10
2017,11,23,03,12,14.00
2017,11,23,03,13,14.00
2017,11,23,03,14,14.00
2017,11,23,03,15,14.00
2017,11,23,03,16,14.00
2017,11,23,03,17,14.00
2017,11,23,03,18,14.10
2017,11,23,03,19,14.10
2017,11,23,03,20,14.10
2017,11,23,03,21,14.10
2017,11,23,03,22,14.00
2017,11,23,03,23,14.00
2017,11,23,03,24,13.90
2017,11,23,03,25,13.90
2017,11,23,03,26,13.90
2017,11,23,03,27,13.90
2017,11,23,03,28,13.90
2017,11,23,03,29,13.90
2017,11,23,03,30,13.90
2017,11,23,03,31,13.90
2017,11,23,03,32,13.80
2017,11,23,03,33,13.80
2017,11,23,03,34,13.90
2017,11,23,03,35,13.90
2017,11,23,03,36,13.80
2017,11,23,03,37,13.80
2017,11,23,03,38,13.80
2017,11,23,03,39,13.80
2017,11,23,03,40,13.70
2017,11,23,03,41,13.70
2017,11,23,03,42,13.70
2017,11,23,03,43,13.70
2017,11,23,03,44,13.70
2017,11,23,03,45,13.60
2017,11,23,03,46,13.60
2017,11,23,03,47,13.60
2017,11,23,03,48,13.60
2017,11,23,03,49,13.60
2017,11,23,03,50,13.70
2017,11,23,03,51,13.70
2017,11,23,03,52,13.70
2017,11,23,03,53,13.70
2017,11,23,03,54,13.80
2017,11,23,03,55,13.80
2017,11,23,03,56,13.80
2017,11,23,03,57,13.80
2017,11,23,03,58,13.80
2017,11,23,03,59,13.80
2017,11,23,04,00,13.80
2017,11,23,04,01,13.80
2017,11,23,04,02,13.80
2017,11,23,04,03,13.80
2017,11,23,04,04,13.80
2017,11,23,04,05,13.80
2017,11,23,04,06,13.80
2017,11,23,04,07,13.80
2017,11,23,04,08,13.70
2017,11,23,04,09,13.70
2017,11,23,04,10,13.70
2017,11,23,04,11,13.60
2017,11,23,04,12,13.60
2017,11,23,04,13,13.50
2017,11,23,04,14,13.50
2017,11,23,04,15,13.40
2017,11,23,04,16,13.40
2017,11,23,04,17,13.40
2017,11,23,04,18,13.40
2017,11,23,04,19,13.40
2017,11,23,04,20,13.40
2017,11,23,04,21,13.40
2017,11,23,04,22,13.30
2017,11,23,04,23,13.30
2017,11,23,04,24,13.30
2017,11,23,04,25,13.30
2017,11,23,04,26,13.30
2017,11,23,04,27,13.30
2017,11,23,04,28,13.30
2017,11,23,04,29,13.30
2017,11,23,04,30,13.30
2017,11,23,04,31,13.30
2017,11,23,04,32,13.30
2017,11,23,04,33,13.30
2017,11,23,04,34,13.20
2017,11,23,04,35,13.20
2017,11,23,04,36,13.20
2017,11,23,04,37,13.20
2017,11,23,04,38,13.10
2017,11,23,04,39,13.10
2017,11,23,04,40,13.10
2017,11,23,04,41,13.10
2017,11,23,04,42,13.10
2017,11,23,04,43,13.10
2017,11,23,04,44,13.10
2017,11,23,04,45,13.10
2017,11,23,04,46,13.10
2017,11,23,04,47,13.10
2017,11,23,04,48,13.10
2017,11,23,04,49,13.10
2017,11,23,04,50,13.00
2017,11,23,04,51,13.00
2017,11,23,04,52,13.00
2017,11,23,04,53,13.10
2017,11,23,04,54,13.10
2017,11,23,04,55,13.10
2017,11,23,04,56,13.10
2017,11,23,04,57,13.10
2017,11,23,04,58,13.10
2017,11,23,04,59,13.10
2017,11,23,05,00,13.10
2017,11,23,05,01,13.00
2017,11,23,05,02,13.00
2017,11,23,05,03,13.00
2017,11,23,05,04,13.00
2017,11,23,05,05,12.90
2017,11,23,05,06,12.90
2017,11,23,05,07,12.90
2017,11,23,05,08,12.90
2017,11,23,05,09,12.80
2017,11,23,05,10,12.80
2017,11,23,05,11,12.80
2017,11,23,05,12,12.80
2017,11,23,05,13,12.80
2017,11,23,05,14,12.80
2017,11,23,05,15,12.70
2017,11,23,05,16,12.70
2017,11,23,05,17,12.70
2017,11,23,05,18,12.70
2017,11,23,05,19,12.70
2017,11,23,05,20,12.60
2017,11,23,05,21,12.60
2017,11,23,05,22,12.60
2017,11,23,05,23,12.70
2017,11,23,05,24,12.70
2017,11,23,05,25,12.70
2017,11,23,05,26,12.70
2017,11,23,05,27,12.70
2017,11,23,05,28,12.80
2017,11,23,05,29,12.80
2017,11,23,05,30,12.80
2017,11,23,05,31,12.80
2017,11,23,05,32,12.70
2017,11,23,05,33,12.70
2017,11,23,05,34,12.70
2017,11,23,05,35,12.70
2017,11,23,05,36,12.70
2017,11,23,05,37,12.70
2017,11,23,05,38,12.60
2017,11,23,05,39,12.60
2017,11,23,05,40,12.60
2017,11,23,05,41,12.50
2017,11,23,05,42,12.40
2017,11,23,05,43,12.40
2017,11,23,05,44,12.30
2017,11,23,05,45,12.30
2017,11,23,05,46,12.20
2017,11,23,05,47,12.20
2017,11,23,05,48,12.20
2017,11,23,05,49,12.10
2017,11,23,05,50,12.10
2017,11,23,05,51,12.00
2017,11,23,05,52,12.00
2017,11,23,05,53,12.00
2017,11,23,05,54,11.90
2017,11,23,05,55,11.90
2017,11,23,05,56,11.90
2017,11,23,05,57,11.90
2017,11,23,05,58,11.80
2017,11,23,05,59,11.80
2017,11,23,06,00,11.80
2017,11,23,06,01,11.80
2017,11,23,06,02,11.80
2017,11,23,06,03,11.70
2017,11,23,06,04,11.70
2017,11,23,06,05,11.70
2017,11,23,06,06,11.60
2017,11,23,06,07,11.60
2017,11,23,06,08,11.60
2017,11,23,06,09,11.50
2017,11,23,06,10,11.50
2017,11,23,06,11,11.40
2017,11,23,06,12,11.40
2017,11,23,06,13,11.40
2017,11,23,06,14,11.40
2017,11,23,06,15,11.40
2017,11,23,06,16,11.30
2017,11,23,06,17,11.30
2017,11,23,06,18,11.30
2017,11,23,06,19,11.30
2017,11,23,06,20,11.30
2017,11,23,06,21,11.30
2017,11,23,06,22,11.30
2017,11,23,06,23,11.30
2017,11,23,06,24,11.30
2017,11,23,06,25,11.30
2017,11,23,06,26,11.30
2017,11,23,06,27,11.30
2017,11,23,06,28,11.30
2017,11,23,06,29,11.20
2017,11,23,06,30,11.20
2017,11,23,06,31,11.20
2017,11,23,06,32,11.20
2017,11,23,06,33,11.20
2017,11,23,06,34,11.20
2017,11,23,06,35,11.20
2017,11,23,06,36,11.20
2017,11,23,06,37,11.20
2017,11,23,06,38,11.20
2017,11,23,06,39,11.20
2017,11,23,06,40,11.20
2017,11,23,06,41,11.20
2017,11,23,06,42,11.20
2017,11,23,06,43,11.20
2017,11,23,06,44,11.20
2017,11,23,06,45,11.20
2017,11,23,06,46,11.20
2017,11,23,06,47,11.20
2017,11,23,06,48,11.20
2017,11,23,06,49,11.20
2017,11,23,06,50,11.20
2017,11,23,06,51,11.20
2017,11,23,06,52,11.10
2017,11,23,06,53,11.10
2017,11,23,06,54,11.10
2017,11,23,06,55,11.10
2017,11,23,06,56,11.10
2017,11,23,06,57,11.10
2017,11,23,06,58,11.10
2017,11,23,06,59,11.10
2017,11,23,07,00,11.10
2017,11,23,07,01,11.10
2017,11,23,07,02,11.10
2017,11,23,07,03,11.10
2017,11,23,07,04,11.10
2017,11,23,07,05,11.10
2017,11,23,07,06,11.10
2017,11,23,07,07,11.10
2017,11,23,07,08,11.10
2017,11,23,07,09,11.10
2017,11,23,07,10,11.00
2017,11,23,07,11,11.00
2017,11,23,07,12,11.00
2017,11,23,07,13,11.00
2017,11,23,07,14,11.00
2017,11,23,07,15,10.90
2017,11,23,07,16,10.90
2017,11,23,07,17,10.90
2017,11,23,07,18,10.90
2017,11,23,07,19,10.90
2017,11,23,07,20,10.90
2017,11,23,07,21,10.90
2017,11,23,07,22,10.90
2017,11,23,07,23,10.90
2017,11,23,07,24,10.90
2017,11,23,07,25,10.90
2017,11,23,07,26,10.90
2017,11,23,07,27,10.90
2017,11,23,07,28,10.80
2017,11,23,07,29,10.80
2017,11,23,07,30,10.80
2017,11,23,07,31,10.80
2017,11,23,07,32,10.80
2017,11,23,07,33,10.80
2017,11,23,07,34,10.80
2017,11,23,07,35,10.80
2017,11,23,07,36,10.80
2017,11,23,07,37,10.80
2017,11,23,07,38,10.80
2017,11,23,07,39,10.80
2017,11,23,07,40,10.80
2017,11,23,07,41,10.80
2017,11,23,07,42,10.80
2017,11,23,07,43,10.80
2017,11,23,07,44,10.80
2017,11,23,07,45,10.80
2017,11,23,07,46,10.80
2017,11,23,07,47,10.80
2017,11,23,07,48,10.80
2017,11,23,07,49,10.80
2017,11,23,07,50,10.80
2017,11,23,07,51,10.80
2017,11,23,07,52,10.80
2017,11,23,07,53,10.80
2017,11,23,07,54,10.80
2017,11,23,07,55,10.80
2017,11,23,07,56,10.80
2017,11,23,07,57,10.80
2017,11,23,07,58,10.80
2017,11,23,07,59,10.70
2017,11,23,08,00,10.70
2017,11,23,08,01,10.70
2017,11,23,08,02,10.70
2017,11,23,08,03,10.70
2017,11,23,08,04,10.70
2017,11,23,08,05,10.70
2017,11,23,08,06,10.70
2017,11,23,08,07,10.70
2017,11,23,08,08,10.70
2017,11,23,08,09,10.70
2017,11,23,08,10,10.70
2017,11,23,08,11,10.70
2017,11,23,08,12,10.60
2017,11,23,08,13,10.60
2017,11,23,08,14,10.60
2017,11,23,08,15,10.60
2017,11,23,08,16,10.60
2017,11,23,08,17,10.60
2017,11,23,08,18,10.60
2017,11,23,08,19,10.60
2017,11,23,08,20,10.60
2017,11,23,08,21,10.50
2017,11,23,08,22,10.50
2017,11,23,08,23,10.50
2017,11,23,08,24,10.50
2017,11,23,08,25,10.50
2017,11,23,08,26,10.50
2017,11,23,08,27,10.50
2017,11,23,08,28,10.50
2017,11,23,08,29,10.50
2017,11,23,08,30,10.50
2017,11,23,08,31,10.50
2017,11,23,08,32,10.60
2017,11,23,08,33,10.60
2017,11,23,08,34,10.60
2017,11,23,08,35,10.60
2017,11,23,08,36,10.60
2017,11,23,08,37,10.60
2017,11,23,08,38,10.60
2017,11,23,08,39,10.50
2017,11,23,08,40,10.50
2017,11,23,08,41,10.50
2017,11,23,08,42,10.50
2017,11,23,08,43,10.50
2017,11,23,08,44,10.50
2017,11,23,08,45,10.50
2017,11,23,08,46,10.50
2017,11,23,08,47,10.50
2017,11,23,08,48,10.50
2017,11,23,08,49,10.50
2017,11,23,08,50,10.50
2017,11,23,08,51,10.50
2017,11,23,08,52,10.50
2017,11,23,08,53,10.50
2017,11,23,08,54,10.50
2017,11,23,08,55,10.50
2017,11,23,08,56,10.50
2017,11,23,08,57,10.50
2017,11,23,08,58,10.50
2017,11,23,08,59,10.50
2017,11,23,09,00,10.60
2017,11,23,09,01,10.60
2017,11,23,09,02,10.60
2017,11,23,09,03,10.60
2017,11,23,09,04,10.60
2017,11,23,09,05,10.60
2017,11,23,09,06,10.60
2017,11,23,09,07,10.50
2017,11,23,09,08,10.50
2017,11,23,09,09,10.50
2017,11,23,09,10,10.50
2017,11,23,09,11,10.50
2017,11,23,09,12,10.50
2017,11,23,09,13,10.40
2017,11,23,09,14,10.40
2017,11,23,09,15,10.40
2017,11,23,09,16,10.40
2017,11,23,09,17,10.40
2017,11,23,09,18,10.40
2017,11,23,09,19,10.40
2017,11,23,09,20,10.40
2017,11,23,09,21,10.40
2017,11,23,09,22,10.40
2017,11,23,09,23,10.40
2017,11,23,09,24,10.40
2017,11,23,09,25,10.40
2017,11,23,09,26,10.50
2017,11,23,09,27,10.50
2017,11,23,09,28,10.40
2017,11,23,09,29,10.40
2017,11,23,09,30,10.40
2017,11,23,09,31,10.40
2017,11,23,09,32,10.40
2017,11,23,09,33,10.40
2017,11,23,09,34,10.40
2017,11,23,09,35,10.40
2017,11,23,09,36,10.40
2017,11,23,09,37,10.40
2017,11,23,09,38,10.40
2017,11,23,09,39,10.50
2017,11,23,09,40,10.50
2017,11,23,09,41,10.50
2017,11,23,09,42,10.60
2017,11,23,09,43,10.60
2017,11,23,09,44,10.60
2017,11,23,09,45,10.60
2017,11,23,09,46,10.60
2017,11,23,09,47,10.60
2017,11,23,09,48,10.60
2017,11,23,09,49,10.60
2017,11,23,09,50,10.60
2017,11,23,09,51,10.60
2017,11,23,09,52,10.70
2017,11,23,09,53,10.70
2017,11,23,09,54,10.70
2017,11,23,09,55,10.80
2017,11,23,09,56,10.80
2017,11,23,09,57,10.80
2017,11,23,09,58,10.80
2017,11,23,09,59,10.80
2017,11,23,10,00,10.80
2017,11,23,10,01,10.90
2017,11,23,10,02,11.10
2017,11,23,10,03,11.20
2017,11,23,10,04,11.30
2017,11,23,10,05,11.40
2017,11,23,10,06,11.40
2017,11,23,10,07,11.40
2017,11,23,10,08,11.40
2017,11,23,10,09,11.40
2017,11,23,10,10,11.40
2017,11,23,10,11,11.30
2017,11,23,10,12,11.30
2017,11,23,10,13,11.20
2017,11,23,10,14,11.20
2017,11,23,10,15,11.20
2017,11,23,10,16,11.10
2017,11,23,10,17,11.10
2017,11,23,10,18,11.10
2017,11,23,10,19,11.10
2017,11,23,10,20,11.10
2017,11,23,10,21,11.10
2017,11,23,10,22,11.10
2017,11,23,10,23,11.10
2017,11,23,10,24,11.10
2017,11,23,10,25,11.10
2017,11,23,10,26,11.10
2017,11,23,10,27,11.10
2017,11,23,10,28,11.10
2017,11,23,10,29,11.10
2017,11,23,10,30,11.10
2017,11,23,10,31,11.00
2017,11,23,10,32,11.00
2017,11,23,10,33,11.00
2017,11,23,10,34,11.00
2017,11,23,10,35,11.00
2017,11,23,10,36,11.00
2017,11,23,10,37,11.00
2017,11,23,10,38,10.90
2017,11,23,10,39,10.90
2017,11,23,10,40,10.90
2017,11,23,10,41,10.90
2017,11,23,10,42,10.90
2017,11,23,10,43,10.90
2017,11,23,10,44,10.90
2017,11,23,10,45,10.90
2017,11,23,10,46,10.90
2017,11,23,10,47,10.90
2017,11,23,10,48,10.90
2017,11,23,10,49,10.90
2017,11,23,10,50,10.90
2017,11,23,10,51,10.90
2017,11,23,10,52,10.90
2017,11,23,10,53,10.90
2017,11,23,10,54,10.90
2017,11,23,10,55,10.90
2017,11,23,10,56,10.90
2017,11,23,10,57,10.90
2017,11,23,10,58,10.90
2017,11,23,10,59,10.90
2017,11,23,11,00,10.90
2017,11,23,11,01,10.90
2017,11,23,11,02,10.90
2017,11,23,11,03,10.90
2017,11,23,11,04,10.90
2017,11,23,11,05,10.90
2017,11,23,11,06,10.90
2017,11,23,11,07,10.90
2017,11,23,11,08,10.90
2017,11,23,11,09,10.90
2017,11,23,11,10,10.90
2017,11,23,11,11,10.90
2017,11,23,11,12,10.90
2017,11,23,11,13,10.90
2017,11,23,11,14,11.00
2017,11,23,11,15,11.00
2017,11,23,11,16,11.00
2017,11,23,11,17,11.10
2017,11,23,11,18,11.10
2017,11,23,11,19,11.10
2017,11,23,11,20,11.10
2017,11,23,11,21,11.10
2017,11,23,11,22,11.10
2017,11,23,11,23,11.10
2017,11,23,11,24,11.20
2017,11,23,11,25,11.20
2017,11,23,11,26,11.20
2017,11,23,11,27,11.30
2017,11,23,11,28,11.30
2017,11,23,11,29,11.30
2017,11,23,11,30,11.40
2017,11,23,11,31,11.40
2017,11,23,11,32,11.40
2017,11,23,11,33,11.40
2017,11,23,11,34,11.50
2017,11,23,11,35,11.50
2017,11,23,11,36,11.50
2017,11,23,11,37,11.60
2017,11,23,11,38,11.60
2017,11,23,11,39,11.60
2017,11,23,11,40,11.60
2017,11,23,11,41,11.60
2017,11,23,11,42,11.60
2017,11,23,11,43,11.70
2017,11,23,11,44,11.70
2017,11,23,11,45,11.70
2017,11,23,11,46,11.70
2017,11,23,11,47,11.70
2017,11,23,11,48,11.70
2017,11,23,11,49,11.60
2017,11,23,11,50,11.60
2017,11,23,11,51,11.70
2017,11,23,11,52,11.70
2017,11,23,11,53,11.70
2017,11,23,11,54,11.70
2017,11,23,11,55,11.70
2017,11,23,11,56,11.80
2017,11,23,11,57,11.80
2017,11,23,11,58,11.80
2017,11,23,11,59,11.80
2017,11,23,12,00,11.80
2017,11,23,12,01,11.80
2017,11,23,12,02,11.80
2017,11,23,12,03,11.80
2017,11,23,12,04,11.80
2017,11,23,12,05,11.80
2017,11,23,12,06,11.90
2017,11,23,12,07,11.90
2017,11,23,12,08,12.00
2017,11,23,12,09,12.00
2017,11,23,12,10,12.10
2017,11,23,12,11,12.10
2017,11,23,12,12,12.20
2017,11,23,12,13,12.20
2017,11,23,12,14,12.20
2017,11,23,12,15,12.20
2017,11,23,12,16,12.20
2017,11,23,12,17,12.20
2017,11,23,12,18,12.30
2017,11,23,12,19,12.30
2017,11,23,12,20,12.30
2017,11,23,12,21,12.40
2017,11,23,12,22,12.40
2017,11,23,12,23,12.40
2017,11,23,12,24,12.40
2017,11,23,12,25,12.40
2017,11,23,12,26,12.40
2017,11,23,12,27,12.40
2017,11,23,12,28,12.50
2017,11,23,12,29,12.50
2017,11,23,12,30,12.40
2017,11,23,12,31,12.50
2017,11,23,12,32,12.50
2017,11,23,12,33,12.60
2017,11,23,12,34,12.60
2017,11,23,12,35,12.70
2017,11,23,12,36,12.70
2017,11,23,12,37,12.70
2017,11,23,12,38,12.80
2017,11,23,12,39,12.80
2017,11,23,12,40,12.80
2017,11,23,12,41,12.80
2017,11,23,12,42,12.90
2017,11,23,12,43,12.90
2017,11,23,12,44,12.90
2017,11,23,12,45,12.90
2017,11,23,12,46,12.90
2017,11,23,12,47,12.90
2017,11,23,12,48,13.00
2017,11,23,12,49,12.90
2017,11,23,12,50,13.00
2017,11,23,12,51,13.00
2017,11,23,12,52,13.00
2017,11,23,12,53,13.00
2017,11,23,12,54,13.00
2017,11,23,12,55,13.00
2017,11,23,12,56,13.10
2017,11,23,12,57,13.10
2017,11,23,12,58,13.10
2017,11,23,12,59,13.00
2017,11,23,13,00,13.00
2017,11,23,13,01,12.90
2017,11,23,13,02,12.80
2017,11,23,13,03,12.80
2017,11,23,13,04,12.80
2017,11,23,13,05,12.80
2017,11,23,13,06,12.80
2017,11,23,13,07,12.80
2017,11,23,13,08,12.80
2017,11,23,13,09,12.80
2017,11,23,13,10,12.80
2017,11,23,13,11,12.80
2017,11,23,13,12,12.80
2017,11,23,13,13,12.70
2017,11,23,13,14,12.70
2017,11,23,13,15,12.70
2017,11,23,13,16,12.70
2017,11,23,13,17,12.70
2017,11,23,13,18,12.70
2017,11,23,13,19,12.70
2017,11,23,13,20,12.70
2017,11,23,13,21,12.70
2017,11,23,13,22,12.80
2017,11,23,13,23,12.80
2017,11,23,13,24,12.80
2017,11,23,13,25,12.80
2017,11,23,13,26,12.80
2017,11,23,13,27,12.80
2017,11,23,13,28,12.80
2017,11,23,13,29,12.80
2017,11,23,13,30,12.80
2017,11,23,13,31,12.90
2017,11,23,13,32,12.90
2017,11,23,13,33,12.90
2017,11,23,13,34,12.90
2017,11,23,13,35,12.90
2017,11,23,13,36,13.00
2017,11,23,13,37,13.00
2017,11,23,13,38,13.00
2017,11,23,13,39,13.00
2017,11,23,13,40,13.10
2017,11,23,13,41,13.10
2017,11,23,13,42,13.10
2017,11,23,13,43,13.20
2017,11,23,13,44,13.20
2017,11,23,13,45,13.20
2017,11,23,13,46,13.20
2017,11,23,13,47,13.20
2017,11,23,13,48,13.40
2017,11,23,13,49,13.50
2017,11,23,13,50,13.50
2017,11,23,13,51,13.60
2017,11,23,13,52,13.60
2017,11,23,13,53,13.70
2017,11,23,13,54,13.60
2017,11,23,13,55,13.60
2017,11,23,13,56,13.50
2017,11,23,13,57,13.50
2017,11,23,13,58,13.40
2017,11,23,13,59,13.40
2017,11,23,14,00,13.40
2017,11,23,14,01,13.50
2017,11,23,14,02,13.50
2017,11,23,14,03,13.60
2017,11,23,14,04,13.50
2017,11,23,14,05,13.50
2017,11,23,14,06,13.50
2017,11,23,14,07,13.50
2017,11,23,14,08,13.60
2017,11,23,14,09,13.60
2017,11,23,14,10,13.60
2017,11,23,14,11,13.60
2017,11,23,14,12,13.50
2017,11,23,14,13,13.40
2017,11,23,14,14,13.40
2017,11,23,14,15,13.30
2017,11,23,14,16,13.30
2017,11,23,14,17,13.30
2017,11,23,14,18,13.20
2017,11,23,14,19,13.20
2017,11,23,14,20,13.20
2017,11,23,14,21,13.20
2017,11,23,14,22,13.20
2017,11,23,14,23,13.10
2017,11,23,14,24,13.10
2017,11,23,14,25,13.00
2017,11,23,14,26,13.00
2017,11,23,14,27,13.00
2017,11,23,14,28,13.00
2017,11,23,14,29,13.00
2017,11,23,14,30,13.00
2017,11,23,14,31,13.00
2017,11,23,14,32,12.90
2017,11,23,14,33,12.90
2017,11,23,14,34,12.90
2017,11,23,14,35,12.80
2017,11,23,14,36,12.80
2017,11,23,14,37,12.80
2017,11,23,14,38,12.70
2017,11,23,14,39,12.70
2017,11,23,14,40,12.60
2017,11,23,14,41,12.60
2017,11,23,14,42,12.50
2017,11,23,14,43,12.40
2017,11,23,14,44,12.40
2017,11,23,14,45,12.30
2017,11,23,14,46,12.30
2017,11,23,14,47,12.30
2017,11,23,14,48,12.30
2017,11,23,14,49,12.30
2017,11,23,14,50,12.30
2017,11,23,14,51,12.30
2017,11,23,14,52,12.30
2017,11,23,14,53,12.30
2017,11,23,14,54,12.30
2017,11,23,14,55,12.30
2017,11,23,14,56,12.30
2017,11,23,14,57,12.30
2017,11,23,14,58,12.30
2017,11,23,14,59,12.30
2017,11,23,15,00,12.20
2017,11,23,15,01,12.30
2017,11,23,15,02,12.30
2017,11,23,15,03,12.30
2017,11,23,15,04,12.30
2017,11,23,15,05,12.30
2017,11,23,15,06,12.20
2017,11,23,15,07,12.20
2017,11,23,15,08,12.20
2017,11,23,15,09,12.20
2017,11,23,15,10,12.10
2017,11,23,15,11,12.10
2017,11,23,15,12,12.10
2017,11,23,15,13,12.10
2017,11,23,15,14,12.10
2017,11,23,15,15,12.00
2017,11,23,15,16,12.00
2017,11,23,15,17,11.90
2017,11,23,15,18,11.90
2017,11,23,15,19,12.00
2017,11,23,15,20,12.00
2017,11,23,15,21,12.00
2017,11,23,15,22,12.00
2017,11,23,15,23,12.00
2017,11,23,15,24,12.00
2017,11,23,15,25,12.00
2017,11,23,15,26,12.10
2017,11,23,15,27,12.10
2017,11,23,15,28,12.10
2017,11,23,15,29,12.10
2017,11,23,15,30,12.00
2017,11,23,15,31,12.00
2017,11,23,15,32,12.00
2017,11,23,15,33,12.00
2017,11,23,15,34,11.90
2017,11,23,15,35,11.90
2017,11,23,15,36,11.90
2017,11,23,15,37,11.80
2017,11,23,15,38,11.80
2017,11,23,15,39,11.80
2017,11,23,15,40,11.80
2017,11,23,15,41,11.80
2017,11,23,15,42,11.80
2017,11,23,15,43,11.80
2017,11,23,15,44,11.80
2017,11,23,15,45,11.80
2017,11,23,15,46,11.90
2017,11,23,15,47,11.90
2017,11,23,15,48,11.90
2017,11,23,15,49,11.90
2017,11,23,15,50,11.90
2017,11,23,15,51,11.90
2017,11,23,15,52,11.90
2017,11,23,15,53,11.90
2017,11,23,15,54,11.90
2017,11,23,15,55,11.90
2017,11,23,15,56,11.90
2017,11,23,15,57,11.90
2017,11,23,15,58,11.90
2017,11,23,15,59,11.90
2017,11,23,16,00,11.80
2017,11,23,16,01,11.80
2017,11,23,16,02,11.80
2017,11,23,16,03,11.80
2017,11,23,16,04,11.80
2017,11,23,16,05,11.80
2017,11,23,16,06,11.80
2017,11,23,16,07,11.70
2017,11,23,16,08,11.70
2017,11,23,16,09,11.70
2017,11,23,16,10,11.60
2017,11,23,16,11,11.60
2017,11,23,16,12,11.50
2017,11,23,16,13,11.50
2017,11,23,16,14,11.40
2017,11,23,16,15,11.40
2017,11,23,16,16,11.40
2017,11,23,16,17,11.40
2017,11,23,16,18,11.40
2017,11,23,16,19,11.40
2017,11,23,16,20,11.40
2017,11,23,16,21,11.40
2017,11,23,16,22,11.40
2017,11,23,16,23,11.40
2017,11,23,16,24,11.40
2017,11,23,16,25,11.30
2017,11,23,16,26,11.30
2017,11,23,16,27,11.30
2017,11,23,16,28,11.30
2017,11,23,16,29,11.30
2017,11,23,16,30,11.30
2017,11,23,16,31,11.20
2017,11,23,16,32,11.20
2017,11,23,16,33,11.20
2017,11,23,16,34,11.20
2017,11,23,16,35,11.20
2017,11,23,16,36,11.20
2017,11,23,16,37,11.20
2017,11,23,16,38,11.20
2017,11,23,16,39,11.20
2017,11,23,16,40,11.10
2017,11,23,16,41,11.10
2017,11,23,16,42,11.10
2017,11,23,16,43,11.10
2017,11,23,16,44,11.10
2017,11,23,16,45,11.10
2017,11,23,16,46,11.10
2017,11,23,16,47,11.10
2017,11,23,16,48,11.10
2017,11,23,16,49,11.10
2017,11,23,16,50,11.10
2017,11,23,16,51,11.10
2017,11,23,16,52,11.10
2017,11,23,16,53,11.10
2017,11,23,16,54,11.10
2017,11,23,16,55,11.00
2017,11,23,16,56,11.00
2017,11,23,16,57,11.10
2017,11,23,16,58,11.10
2017,11,23,16,59,11.10
2017,11,23,17,00,11.00
2017,11,23,17,01,11.00
2017,11,23,17,02,11.00
2017,11,23,17,03,11.00
2017,11,23,17,04,11.00
2017,11,23,17,05,11.00
2017,11,23,17,06,10.90
2017,11,23,17,07,10.90
2017,11,23,17,08,10.90
2017,11,23,17,09,10.90
2017,11,23,17,10,10.90
2017,11,23,17,11,10.90
2017,11,23,17,12,10.90
2017,11,23,17,13,10.90
2017,11,23,17,14,10.80
2017,11,23,17,15,10.80
2017,11,23,17,16,10.80
2017,11,23,17,17,10.80
2017,11,23,17,18,10.80
2017,11,23,17,19,10.80